Weather History for West Palm Beach, FL

Change the Weather History Date:

Wednesday, October 5, 2011

  Actual Average Record
Temperature  
Mean Temperature 82 °F 80 °F  
Max Temperature 86 °F 87 °F 92 °F (1964)
Min Temperature 77 °F 74 °F 63 °F (1897)
Degree Days  
Heating Degree Days 0 0  
Month to date heating degree days 0 0  
Since 1 July heating degree days 0 0  
Cooling Degree Days 17 15  
Month to date cooling degree days 79 77  
Year to date cooling degree days 3971 3285  
Growing Degree Days 30 (Base 50)    
Moisture  
Dew Point 64 °F    
Average Humidity 62    
Maximum Humidity 76    
Minimum Humidity 48    
Precipitation  
Precipitation 0.02 in 0.20 in 7.10 in (1948)
Month to date precipitation 0.02 1.02  
Year to date precipitation 35.79 50.09  
Snow  
Snow 0.00 in - - ()
Month to date snowfall 0.0  
Since 1 July snowfall 0.0  
Since 1 September snowfall 0.0  
Snow Depth 0.00 in    
Sea Level Pressure  
Sea Level Pressure 30.04 in    
Wind  
Wind Speed 12 mph (NE)    
Max Wind Speed 22 mph    
Max Gust Speed 28 mph    
Visibility 10 miles    
Events Rain    
T = Trace of Precipitation, MM = Missing Value Source: NWS Daily Summary

Daily Weather History Graph

Daily Weather History Graph

Search for Another Location

Airport:

Trip Planner

Search our weather history database for the weather conditions in past years. The results will help you decide how hot, cold, wet, or windy it might be!

Date:

Astronomy

Oct. 05, 2011 Rise Set
Actual Time 7:14 AM EDT 7:02 PM EDT
Civil Twilight 6:51 AM EDT 7:25 PM EDT
Nautical Twilight 6:24 AM EDT 7:52 PM EDT
Astronomical Twilight 5:57 AM EDT 8:19 PM EDT
Moon 3:12 PM EDT (10/5) 1:32 AM EDT (10/5)
Length of Visible Light 12h 34m
Length of Day
11h 48m
Waxing Gibbous, 66% of the Moon is Illuminated
Oct 5
Waxing Gibbous
Oct 11
Full
Oct 19
Last Quarter
Oct 26
New
Nov 2
First Quarter

Hourly Weather History & Observations

Time (EDT) Temp. Heat Index Dew Point Humidity Pressure Visibility Wind Dir Wind Speed Gust Speed Precip Events Conditions
12:53 AM 79.0 °F - 60.1 °F 52% 30.07 in 10.0 mi ENE 9.2 mph - N/A   Mostly Cloudy
1:53 AM 79.0 °F - 61.0 °F 54% 30.06 in 10.0 mi ENE 6.9 mph - N/A   Mostly Cloudy
2:53 AM 79.0 °F - 63.0 °F 58% 30.03 in 10.0 mi East 5.8 mph - N/A   Mostly Cloudy
3:53 AM 79.0 °F - 64.0 °F 60% 30.03 in 10.0 mi ENE 6.9 mph - N/A   Mostly Cloudy
4:53 AM 77.0 °F - 69.1 °F 76% 30.01 in 10.0 mi NE 8.1 mph - 0.01 in Rain Light Rain
5:53 AM 78.1 °F - 68.0 °F 71% 30.01 in 10.0 mi NE 13.8 mph - 0.01 in   Mostly Cloudy
6:53 AM 78.1 °F - 66.0 °F 66% 30.03 in 10.0 mi NE 12.7 mph 27.6 mph N/A   Scattered Clouds
7:53 AM 78.1 °F - 66.0 °F 66% 30.04 in 10.0 mi NE 12.7 mph 18.4 mph N/A   Mostly Cloudy
8:53 AM 81.0 °F 82.7 °F 64.9 °F 58% 30.06 in 10.0 mi NE 15.0 mph 23.0 mph N/A   Mostly Cloudy
9:53 AM 82.0 °F 83.4 °F 64.0 °F 54% 30.07 in 10.0 mi ENE 16.1 mph 19.6 mph N/A   Mostly Cloudy
10:53 AM 82.9 °F 84.4 °F 64.0 °F 53% 30.08 in 10.0 mi ENE 15.0 mph - N/A   Mostly Cloudy
11:53 AM 84.9 °F 86.1 °F 64.0 °F 49% 30.07 in 10.0 mi ENE 15.0 mph - N/A   Mostly Cloudy
12:53 PM 84.9 °F 85.9 °F 63.0 °F 48% 30.06 in 10.0 mi NE 15.0 mph 24.2 mph 0.00 in   Mostly Cloudy
1:53 PM 82.9 °F 84.0 °F 63.0 °F 51% 30.04 in 10.0 mi NE 13.8 mph 21.9 mph N/A   Mostly Cloudy
2:53 PM 82.0 °F 83.4 °F 64.0 °F 54% 30.02 in 10.0 mi ENE 15.0 mph - N/A   Mostly Cloudy
3:53 PM 82.9 °F 84.4 °F 64.0 °F 53% 30.01 in 10.0 mi ENE 19.6 mph 24.2 mph 0.00 in   Mostly Cloudy
4:53 PM 81.0 °F 82.5 °F 64.0 °F 56% 30.01 in 10.0 mi NE 10.4 mph - 0.00 in   Mostly Cloudy
5:53 PM 81.0 °F 81.9 °F 62.1 °F 52% 30.01 in 10.0 mi NNE 12.7 mph - N/A   Mostly Cloudy
6:53 PM 80.1 °F 81.5 °F 63.0 °F 56% 30.01 in 10.0 mi NE 11.5 mph - N/A   Mostly Cloudy
7:53 PM 80.1 °F 81.2 °F 62.1 °F 54% 30.02 in 10.0 mi ENE 11.5 mph - N/A   Mostly Cloudy
8:53 PM 80.1 °F 81.7 °F 64.0 °F 58% 30.03 in 10.0 mi NE 12.7 mph - 0.00 in Rain Light Rain
9:53 PM 80.1 °F 81.5 °F 63.0 °F 56% 30.04 in 10.0 mi ENE 12.7 mph - 0.00 in   Scattered Clouds
10:53 PM 79.0 °F - 60.1 °F 52% 30.04 in 10.0 mi NE 12.7 mph - N/A   Partly Cloudy
11:53 PM 78.1 °F - 60.1 °F 54% 30.03 in 10.0 mi NE 10.4 mph - N/A   Scattered Clouds